Terug naar catalogus

WASEDA-SAT-ZERO-II

ActiefAmateurradioSSO
NORAD 68797·PAYLOAD·🇯🇵 Japan

Gelanceerd Apr 23, 2026 vanaf Rocket Lab Launch Complex 1

Loading…

Volgende Passages (komende 24 uur)

TLE

VersSource: AMSAT

Epoch: Sep 13, 2026, 22:37 UTC

1 68797U 26088F   26256.94283482  .00004839  00000-0  30495-3 0  9990
2 68797  97.5187  44.4602 0016356 130.5445 229.7211 15.09503497 21683

Volg WASEDA-SAT-ZERO-II in realtime met AllMySat

Download on the App Store